Content
SEND FEEDBACK

Daily
Averages
Monthly
Summary
United States of America

ACHANG BAY, GUAM


Home > North America > United States > Guam
Elevation: 10 meters     Latitude: 13 16N     Longitude: 144 45E

WEATHER
 
SELECT A DAY
Number of Records: 357,336;   Date Range: 1/1/95 - 12/26/14
 
SHARE

PRINT THIS DATA

[ ← Previous Day ]
WEATHER ALMANAC - 5 APRIL, 2013
[ Next Day → ]
[ °F ]   °C
Weather ElementAverageHighLow
Temperature26 °C29 °C (1:55 pm)23.6 °C (5:55 am)
Dewpoint21.6 °C23 °C (2:19 pm)20.2 °C (5:55 am)
Humidity76.6 %83 % (12:54 am)68 % (2:55 pm)
Barometer1010.5 hPa1011.9 hPa (8:55 am)1008.5 hPa (3:55 pm)
Wind Speed18.2 km/h27.8 km/h (1:55 pm)
Wind Gust35.2 km/h (2:33 pm)
Weather ElementAverage
Visibility16.1 km
Wind DirectionENE (72.4 °)

Weather ElementTotal
Precipitation---
Cooling Degree Days8 (Base 18.3)
Growing Degree Days16.3 (Base 10)
Averaged from 45 records on 5 April, 2013
WEATHER CONDITIONS BREAKOUT
WIND DIRECTION BREAKOUT
WEATHER BY HOUR - 5 APRIL, 2013
[ °F ]   °C
Local TimeTemperatureDewpointHumidityBarometerVisibilityWind DirectionWind SpeedGust SpeedPrecipitationEventsConditions
12:54 AM25 °C22 °C83 %1010.8 hPa16.1 kmEast (80°)13 km/hScattered Clouds
12:55 AM25.4 °C21.8 °C80 %1010.8 hPa16.1 kmEast (80°)13 km/hScattered Clouds
1:55 AM25 °C21.5 °C81 %1010.2 hPa16.1 kmEast (90°)18.5 km/hPartly Cloudy
2:55 AM24.8 °C21.2 °C80 %1009.8 hPa16.1 kmEast (80°)16.7 km/hPartly Cloudy
3:55 AM24.8 °C20.5 °C77 %1009.5 hPa16.1 kmENE (70°)18.5 km/hPartly Cloudy
4:55 AM24.4 °C20.6 °C79 %1009.8 hPa16.1 kmEast (80°)14.8 km/hPartly Cloudy
5:55 AM23.6 °C20.2 °C81 %1010.2 hPa16.1 kmENE (60°)14.8 km/hClear
6:55 AM24.5 °C20.7 °C79 %1010.8 hPa16.1 kmENE (60°)14.8 km/hPartly Cloudy
7:08 AM25 °C21 °C78 %1010.8 hPa16.1 kmENE (60°)14.8 km/hRainLight Rain
7:19 AM25 °C21 °C78 %1010.8 hPa16.1 kmENE (60°)14.8 km/hScattered Clouds
7:55 AM26.4 °C21.5 °C74 %1011.5 hPa16.1 kmENE (70°)14.8 km/h0 mmPartly Cloudy
8:55 AM27.3 °C21.9 °C72 %1011.9 hPa16.1 kmEast (80°)20.4 km/hPartly Cloudy
9:55 AM28.1 °C22 °C69 %1011.9 hPa16.1 kmNE (50°)20.4 km/hScattered Clouds
10:55 AM28.6 °C22.5 °C69 %1011.5 hPa16.1 kmEast (80°)24.1 km/h33.3 km/hPartly Cloudy
11:55 AM28.7 °C22.5 °C69 %1010.8 hPa16.1 kmEast (80°)20.4 km/hMostly Cloudy
12:55 PM28.4 °C22.2 °C69 %1010.2 hPa16.1 kmENE (60°)24.1 km/hMostly Cloudy
1:55 PM29 °C22.8 °C69 %1009.5 hPa16.1 kmEast (80°)27.8 km/hScattered Clouds
2:19 PM28 °C23 °C74 %1009.1 hPa16.1 kmEast (90°)27.8 km/hMostly Cloudy
2:33 PM28 °C22 °C70 %1009.1 hPa16.1 kmEast (80°)25.9 km/h35.2 km/hScattered Clouds
2:55 PM28.4 °C22 °C68 %1008.8 hPa16.1 kmENE (70°)27.8 km/hPartly Cloudy
3:55 PM27.9 °C21.5 °C68 %1008.5 hPa16.1 kmEast (80°)22.2 km/hPartly Cloudy
4:55 PM27.5 °C21.4 °C69 %1008.5 hPa16.1 kmEast (80°)22.2 km/hScattered Clouds
5:55 PM26.3 °C20.9 °C72 %1008.8 hPa16.1 kmEast (90°)18.5 km/hClear
6:55 PM25.5 °C21.2 °C77 %1009.5 hPa16.1 kmEast (80°)18.5 km/hPartly Cloudy
7:34 PM26 °C22 °C78 %1010.2 hPa16.1 kmEast (80°)18.5 km/hMostly Cloudy
7:40 PM26 °C21 °C74 %1010.2 hPa16.1 kmEast (80°)18.5 km/hScattered Clouds
7:50 PM26 °C21 °C74 %1010.2 hPa16.1 kmENE (70°)16.7 km/hMostly Cloudy
7:55 PM25.6 °C21.5 °C78 %1010.2 hPa16.1 kmEast (80°)14.8 km/hMostly Cloudy
7:56 PM26 °C22 °C78 %1010.2 hPa16.1 kmEast (80°)13 km/hMostly Cloudy
8:01 PM26 °C22 °C78 %1010.2 hPa16.1 kmEast (80°)16.7 km/hMostly Cloudy
8:04 PM26 °C22 °C78 %1010.2 hPa16.1 kmENE (70°)14.8 km/hMostly Cloudy
8:06 PM26 °C22 °C78 %1010.2 hPa16.1 kmENE (60°)16.7 km/hMostly Cloudy
8:39 PM25 °C21 °C78 %1010.5 hPa16.1 kmENE (60°)16.7 km/hMostly Cloudy
8:41 PM25 °C21 °C78 %1010.5 hPa16.1 kmENE (60°)16.7 km/hMostly Cloudy
8:43 PM25 °C21 °C78 %1010.5 hPa16.1 kmENE (60°)16.7 km/hMostly Cloudy
8:55 PM25.4 °C21.7 °C80 %1010.8 hPa16.1 kmENE (60°)16.7 km/hScattered Clouds
9:29 PM25 °C22 °C83 %1010.8 hPa16.1 kmENE (60°)14.8 km/hMostly Cloudy
9:34 PM25 °C22 °C83 %1010.8 hPa16.1 kmENE (70°)18.5 km/hScattered Clouds
9:49 PM25 °C22 °C83 %1011.2 hPa16.1 kmEast (80°)14.8 km/hMostly Cloudy
9:55 PM25.5 °C22.5 °C83 %1011.2 hPa16.1 kmENE (70°)14.8 km/hMostly Cloudy
9:57 PM26 °C22 °C78 %1011.2 hPa16.1 kmENE (70°)14.8 km/hScattered Clouds
9:58 PM26 °C22 °C78 %1011.2 hPa16.1 kmENE (70°)16.7 km/hMostly Cloudy
10:16 PM25 °C22 °C83 %1011.2 hPa16.1 kmENE (70°)20.4 km/hMostly Cloudy
10:55 PM24.9 °C21.3 °C80 %1011.2 hPa16.1 kmENE (70°)22.2 km/hClear
11:55 PM25 °C21.3 °C80 %1011.2 hPa16.1 kmENE (70°)18.5 km/hScattered Clouds
Hourly data recorded from PGUA, located 0 kilometers away from Achang Bay, Guam







STORIES FROM OUR PARTNERS